EW5622 Weather Reports


Display with metric or nautical units.
time (UTC)temp
F
wind
direction
speed
MPH
gust
MPH
rain 1hr
in
rain 24hr
in
rain mn
in
humidity
%
barometer
mb
20260510150005 65 225 0.0 4.0 0.00 0.00 0.00 72 1008.1
20260510145403 66 225 0.0 4.0 0.00 0.00 0.00 70 1008.1
20260510144505 66 0 0.0 0.0 0.00 0.00 0.00 68 1008.1
20260510143605 67 341 0.0 3.0 0.00 0.00 0.00 67 1007.1
20260510142703 68 315 0.0 3.0 0.00 0.00 0.00 64 1007.1
20260510141805 69 315 3.0 3.0 0.00 0.00 0.00 61 1007.1
20260510141118 71 337 0.0 3.0 0.00 0.00 0.00 60 1007.1
20260510140005 71 255 0.0 3.0 0.00 0.00 0.00 59 1007.1
20260510135405 72 322 2.0 6.0 0.00 0.00 0.00 58 1007.1
20260510134503 71 307 6.0 6.0 0.00 0.00 0.00 59 1007.1
20260510133817 71 307 2.0 6.0 0.00 0.00 0.00 57 1007.1
20260510132704 72 324 2.0 4.0 0.00 0.00 0.00 59 1007.1
20260510131806 71 321 4.0 4.0 0.00 0.00 0.00 57 1007.1
20260510130903 72 323 3.0 5.0 0.00 0.00 0.00 58 1007.1
20260510130006 72 319 0.0 3.0 0.00 0.00 0.00 59 1007.1
20260510125403 72 320 2.0 4.0 0.00 0.00 0.00 60 1008.1
20260510124714 72 281 4.0 5.0 0.00 0.00 0.00 62 1008.1
20260510123603 71 270 3.0 4.0 0.00 0.00 0.00 65 1008.1
20260510122703 72 319 0.0 5.0 0.00 0.00 0.00 63 1008.1
20260510121803 73 225 0.0 5.0 0.00 0.00 0.00 63 1008.1
20260510120905 72 299 0.0 7.0 0.00 0.00 0.00 61 1008.1
20260510120005 72 315 0.0 3.0 0.00 0.00 0.00 61 1008.1
20260510115405 73 264 0.0 6.0 0.00 0.00 0.00 62 1008.1
20260510114716 73 293 0.0 3.0 0.00 0.00 0.00 60 1008.1
20260510113603 72 322 3.0 3.0 0.00 0.00 0.00 61 1008.1
20260510112703 72 315 0.0 4.0 0.00 0.00 0.00 65 1008.1
20260510111803 71 227 0.0 3.0 0.00 0.00 0.00 65 1008.1
20260510111115 71 202 0.0 3.0 0.00 0.00 0.00 65 1009.1
20260510110005 70 0 0.0 0.0 0.00 0.00 0.00 66 1009.1
20260510105403 71 0 0.0 0.0 0.00 0.00 0.00 66 1009.1
20260510104713 71 0 0.0 0.0 0.00 0.00 0.00 68 1009.1
20260510103813 69 0 0.0 0.0 0.00 0.00 0.00 69 1009.1
20260510102703 71 279 0.0 2.0 0.00 0.00 0.00 69 1008.1
20260510101805 71 185 0.0 1.0 0.00 0.00 0.00 70 1008.1
20260510100904 69 225 0.0 1.0 0.00 0.00 0.00 71 1009.1
20260510100003 70 225 0.0 1.0 0.00 0.00 0.00 70 1009.1
20260510095403 71 0 0.0 0.0 0.00 0.00 0.00 70 1009.1
20260510094504 70 202 0.0 3.0 0.00 0.00 0.00 70 1009.1
20260510093603 69 0 0.0 0.0 0.00 0.00 0.00 72 1009.1
20260510092703 69 0 0.0 0.0 0.00 0.00 0.00 73 1008.1
20260510091803 68 202 0.0 3.0 0.00 0.00 0.00 73 1008.1
20260510090904 68 180 0.0 1.0 0.00 0.00 0.00 74 1008.1
20260510090006 67 180 0.0 1.0 0.00 0.00 0.00 73 1008.1
20260510085403 67 180 0.0 1.0 0.00 0.00 0.00 74 1008.1
20260510084714 67 0 0.0 0.0 0.00 0.00 0.00 74 1008.1
20260510083605 67 0 0.0 0.0 0.00 0.00 0.00 74 1008.1
20260510082705 67 202 0.0 2.0 0.00 0.00 0.00 75 1008.1
20260510081803 67 198 2.0 2.0 0.00 0.00 0.00 75 1008.1
20260510081114 67 219 1.0 2.0 0.00 0.00 0.00 75 1008.1
20260510080213 67 180 0.0 1.0 0.00 0.00 0.00 76 1008.1
20260510075403 66 202 0.0 4.0 0.00 0.00 0.00 77 1008.1
20260510074505 66 208 0.0 2.0 0.00 0.00 0.00 78 1008.1
20260510073605 66 202 0.0 1.0 0.00 0.00 0.00 79 1007.1
20260510072703 65 187 0.0 1.0 0.00 0.00 0.00 80 1007.1
20260510071803 65 182 1.0 5.0 0.00 0.00 0.00 81 1007.1
20260510070903 64 180 3.0 5.0 0.00 0.00 0.00 83 1007.1
20260510070003 63 133 0.0 5.0 0.00 0.00 0.00 84 1007.1
20260510065615 63 161 0.0 5.0 0.00 0.00 0.00 84 1007.1
20260510064506 62 185 0.0 3.0 0.00 0.00 0.00 87 1007.1
20260510063605 61 202 2.0 3.0 0.00 0.00 0.00 90 1007.1
20260510062913 60 0 0.0 0.0 0.00 0.00 0.00 92 1007.1
20260510061805 58 180 0.0 2.0 0.00 0.00 0.00 94 1007.1
20260510060903 57 0 0.0 0.0 0.00 0.00 0.00 95 1007.1
20260510060005 57 0 0.0 0.0 0.00 0.00 0.00 95 1007.1
20260510055616 57 0 0.0 0.0 0.00 0.00 0.00 95 1007.1
20260510054503 56 0 0.0 0.0 0.00 0.00 0.00 96 1007.1
20260510053603 56 0 0.0 0.0 0.00 0.00 0.00 96 1007.1
20260510052703 56 0 0.0 0.0 0.00 0.00 0.00 96 1006.1
20260510051803 56 0 0.0 0.0 0.00 0.00 0.00 96 1006.1
20260510050903 56 0 0.0 0.0 0.00 0.00 0.00 96 1007.1
20260510050214 56 0 0.0 0.0 0.00 0.00 0.00 96 1007.1
20260510045614 56 0 0.0 0.0 0.00 0.00 0.00 96 1007.1
20260510044713 56 0 0.0 0.0 0.00 0.00 0.00 95 1007.1
20260510043603 56 0 0.0 0.0 0.00 0.00 0.00 95 1006.1
20260510042703 56 0 0.0 0.0 0.00 0.00 0.00 95 1006.1
20260510041803 57 0 0.0 0.0 0.00 0.00 0.00 95 1006.1
20260510040903 57 0 0.0 0.0 0.00 0.00 0.00 95 1006.1
20260510040005 57 0 0.0 0.0 0.00 0.00 0.00 94 1006.1
20260510035615 57 0 0.0 0.0 0.00 0.00 0.00 94 1007.1
20260510034715 57 0 0.0 0.0 0.00 0.00 0.00 94 1007.1
20260510033603 57 0 0.0 0.0 0.00 0.00 0.00 93 1007.1
20260510032915 57 0 0.0 0.0 0.00 0.00 0.00 93 1007.1
20260510031803 58 0 0.0 0.0 0.00 0.00 0.00 93 1007.1
20260510030903 58 0 0.0 0.0 0.00 0.00 0.00 94 1007.1
20260510030004 58 0 0.0 0.0 0.00 0.00 0.00 94 1007.1
20260510025403 58 0 0.0 0.0 0.00 0.00 0.00 94 1007.1
20260510024503 58 0 0.0 0.0 0.00 0.00 0.00 94 1007.1
20260510023814 58 0 0.0 0.0 0.00 0.00 0.00 94 1007.1
20260510022703 58 0 0.0 0.0 0.00 0.00 0.00 95 1007.1
20260510021805 58 0 0.0 0.0 0.00 0.00 0.00 95 1007.1
20260510020905 58 0 0.0 0.0 0.00 0.00 0.00 95 1007.1
20260510020215 58 0 0.0 0.0 0.00 0.00 0.00 95 1007.1
20260510015403 58 0 0.0 0.0 0.00 0.00 0.00 95 1007.1
20260510014503 58 0 0.0 0.0 0.00 0.00 0.00 95 1007.1
20260510013603 58 0 0.0 0.0 0.00 0.00 0.00 95 1007.1
20260510012703 58 0 0.0 0.0 0.00 0.00 0.00 94 1007.1
20260510011803 58 0 0.0 0.0 0.00 0.00 0.00 94 1007.1
20260510010903 57 0 0.0 0.0 0.00 0.00 0.00 94 1007.1
20260510010213 57 0 0.0 0.0 0.00 0.00 0.00 94 1007.1
20260510005403 57 0 0.0 0.0 0.00 0.00 0.00 94 1007.1
20260510004505 57 0 0.0 0.0 0.00 0.00 0.00 93 1007.1
20260510003603 57 0 0.0 0.0 0.00 0.00 0.00 93 1007.1
20260510002703 58 0 0.0 0.0 0.00 0.00 0.00 93 1007.1
20260510001805 58 0 0.0 0.0 0.00 0.00 0.00 92 1007.1
20260510001113 58 0 0.0 0.0 0.00 0.00 0.00 92 1007.1
20260510000004 58 0 0.0 0.0 0.00 0.00 0.00 92 1007.1
20260509235403 58 0 0.0 0.0 0.00 0.00 0.00 92 1007.1
20260509234504 59 0 0.0 0.0 0.00 0.00 0.00 92 1007.1
20260509233605 59 0 0.0 0.0 0.00 0.00 0.00 91 1007.1
20260509232703 59 0 0.0 0.0 0.00 0.00 0.00 91 1007.1
20260509232015 60 90 0.0 3.0 0.00 0.00 0.00 91 1008.1
20260509230905 60 0 0.0 0.0 0.00 0.00 0.00 91 1008.1
20260509230005 61 0 0.0 0.0 0.00 0.00 0.00 91 1008.1
20260509225403 61 0 0.0 0.0 0.00 0.00 0.00 91 1008.1
20260509224504 61 0 0.0 0.0 0.00 0.00 0.00 90 1008.1
20260509223603 61 90 0.0 3.0 0.00 0.00 0.00 90 1008.1
20260509222705 62 0 0.0 0.0 0.00 0.00 0.00 90 1008.1
20260509221803 62 0 0.0 0.0 0.00 0.00 0.00 90 1008.1
20260509220903 62 90 0.0 4.0 0.00 0.00 0.00 90 1008.1
20260509220004 63 0 0.0 0.0 0.00 0.00 0.00 89 1008.1
20260509215404 63 90 0.0 5.0 0.00 0.00 0.00 90 1008.1
20260509214505 63 90 0.0 5.0 0.00 0.00 0.00 90 1008.1
20260509213603 64 0 0.0 0.0 0.00 0.00 0.00 90 1008.1
20260509212706 64 90 0.0 3.0 0.00 0.00 0.00 90 1008.1
20260509211803 64 71 0.0 4.0 0.00 0.00 0.00 91 1008.1
20260509210903 64 0 0.0 0.0 0.00 0.00 0.00 91 1008.1
20260509210003 64 0 0.0 0.0 0.00 0.00 0.00 91 1008.1
20260509205404 64 0 0.0 0.0 0.00 0.00 0.00 90 1008.1
20260509204503 64 0 0.0 0.0 0.00 0.00 0.00 90 1008.1
20260509203603 64 0 0.0 0.0 0.00 0.00 0.00 89 1008.1
20260509202703 64 0 0.0 0.0 0.00 0.00 0.00 88 1008.1
20260509201805 64 0 0.0 0.0 0.00 0.00 0.00 86 1008.1
20260509200903 64 0 0.0 0.0 0.00 0.00 0.00 85 1008.1
20260509200215 65 0 0.0 0.0 0.00 0.00 0.00 84 1008.1
20260509195614 65 0 0.0 0.0 0.00 0.00 0.00 83 1008.1
20260509194505 65 0 0.0 0.0 0.00 0.00 0.00 82 1008.1
20260509193603 66 0 0.0 0.0 0.00 0.00 0.00 81 1008.1
20260509192705 66 0 0.0 0.0 0.00 0.00 0.00 81 1008.1
20260509191803 66 0 0.0 0.0 0.00 0.00 0.00 80 1008.1
20260509190904 67 0 0.0 0.0 0.00 0.00 0.00 79 1007.1
20260509190006 67 0 0.0 0.0 0.00 0.00 0.00 79 1007.1
20260509185403 67 0 0.0 0.0 0.00 0.00 0.00 78 1008.1
20260509184503 68 0 0.0 0.0 0.00 0.00 0.00 78 1008.1
20260509183815 68 0 0.0 0.0 0.00 0.00 0.00 78 1007.1
20260509182914 69 0 0.0 0.0 0.00 0.00 0.00 77 1007.1
20260509181803 69 0 0.0 0.0 0.00 0.00 0.00 76 1007.1
20260509180903 69 0 0.0 0.0 0.00 0.00 0.00 76 1007.1
20260509180003 70 0 0.0 0.0 0.00 0.00 0.00 75 1007.1
20260509175403 70 0 0.0 0.0 0.00 0.00 0.00 75 1007.1
20260509174713 70 0 0.0 0.0 0.00 0.00 0.00 75 1007.1
20260509173814 70 0 0.0 0.0 0.00 0.00 0.00 75 1007.1
20260509172705 70 0 0.0 0.0 0.00 0.00 0.00 75 1007.1
20260509171804 70 0 0.0 0.0 0.00 0.00 0.00 75 1007.1
20260509170903 70 0 0.0 0.0 0.00 0.00 0.00 75 1007.1
20260509170004 70 337 0.0 1.0 0.00 0.00 0.00 74 1007.1
20260509165403 71 0 0.0 0.0 0.00 0.00 0.00 74 1007.1
20260509164505 71 0 0.0 0.0 0.00 0.00 0.00 74 1007.1
20260509163605 71 0 0.0 0.0 0.00 0.00 0.00 73 1007.1
20260509162704 72 22 0.0 3.0 0.00 0.00 0.00 72 1007.1
20260509161805 72 0 0.0 0.0 0.00 0.00 0.00 71 1007.1
20260509160903 73 0 0.0 0.0 0.00 0.00 0.00 71 1007.1
20260509160003 74 0 0.0 0.0 0.00 0.00 0.00 70 1007.1
20260509155403 74 0 0.0 0.0 0.00 0.00 0.00 70 1007.1
20260509154714 75 0 0.0 0.0 0.00 0.00 0.00 69 1007.1
20260509153814 75 315 0.0 3.0 0.00 0.00 0.00 70 1007.1
20260509152913 74 0 0.0 0.0 0.00 0.00 0.00 70 1007.1
20260509151803 75 0 0.0 0.0 0.00 0.00 0.00 72 1007.1
20260509150903 75 202 0.0 1.0 0.00 0.00 0.00 72 1007.1